H1 CPF 2 NER 2025 9 16 9 259 01 glonass129 H2 1106402 9129 37868 2025 9 16 0 0 0 2025 9 19 23 45 0 900 1 1 0 0 0 1 H9 10 0 60934 0.00000 0 8337359.283 -14075471.549 -19515980.653 10 0 60934 900.00000 0 8471392.007 -11563946.027 -21049841.736 10 0 60934 1800.00000 0 8815992.886 -8907677.312 -22172940.802 10 0 60934 2700.00000 0 9380469.542 -6175484.253 -22863499.991 10 0 60934 3600.00000 0 10161653.420 -3437721.069 -23108224.354 10 0 60934 4500.00000 0 11143930.932 -763554.547 -22902549.952 10 0 60934 5400.00000 0 12299818.630 1781696.635 -22250717.330 10 0 60934 6300.00000 0 13591057.071 4139049.327 -21165670.226 10 0 60934 7200.00000 0 14970175.990 6258066.834 -19668782.907 10 0 60934 8100.00000 0 16382463.519 8098702.481 -17789422.964 10 0 60934 9000.00000 0 17768255.378 9632700.874 -15564359.541 10 0 60934 9900.00000 0 19065446.770 10844500.966 -13037029.905 10 0 60934 10800.00000 0 20212120.765 11731606.229 -10256679.844 10 0 60934 11700.00000 0 21149182.556 12304409.740 -7277395.588 10 0 60934 12600.00000 0 21822889.164 12585484.724 -4157046.865 10 0 60934 13500.00000 0 22187169.077 12608373.367 -956162.054 10 0 60934 14400.00000 0 22205635.463 12415927.284 2263242.581 10 0 60934 15300.00000 0 21853209.739 12058271.305 5438857.033 10 0 60934 16200.00000 0 21117288.767 11590477.442 8509272.456 10 0 60934 17100.00000 0 19998407.945 11070047.308 11415154.590 10 0 60934 18000.00000 0 18510373.379 10554308.704 14100374.133 10 0 60934 18900.00000 0 16679858.081 10097835.048 16513073.636 10 0 60934 19800.00000 0 14545478.939 9749994.955 18606651.929 10 0 60934 20700.00000 0 12156392.246 9552733.597 20340648.671 10 0 60934 21600.00000 0 9570464.906 9538677.699 21681513.574 10 0 60934 22500.00000 0 6852095.428 9729642.770 22603246.802 10 0 60934 23400.00000 0 4069772.907 10135604.712 23087899.222 10 0 60934 24300.00000 0 1293472.708 10754179.135 23125923.392 10 0 60934 25200.00000 0 -1408005.761 11570631.137 22716368.536 10 0 60934 26100.00000 0 -3969651.143 12558416.785 21866915.087 10 0 60934 27000.00000 0 -6332695.730 13680235.769 20593746.990 10 0 60934 27900.00000 0 -8446814.081 14889553.716 18921262.515 10 0 60934 28800.00000 0 -10271973.967 16132532.909 16881627.105 10 0 60934 29700.00000 0 -11779862.725 17350292.852 14514174.695 10 0 60934 30600.00000 0 -12954829.005 18481407.674 11864666.800 10 0 60934 31500.00000 0 -13794299.557 19464536.565 8984421.792 10 0 60934 32400.00000 0 -14308652.416 20241076.874 5929329.646 10 0 60934 33300.00000 0 -14520550.590 20757727.528 2758770.282 10 0 60934 34200.00000 0 -14463763.316 20968853.166 -465543.761 10 0 60934 35100.00000 0 -14181524.055 20838547.096 -3680777.442 10 0 60934 36000.00000 0 -13724494.628 20342303.311 -6824211.549 10 0 60934 36900.00000 0 -13148422.286 19468224.154 -9834483.510 10 0 60934 37800.00000 0 -12511590.210 18217709.935 -12652804.583 10 0 60934 38700.00000 0 -11872171.244 16605599.043 -15224127.600 10 0 60934 39600.00000 0 -11285599.060 14659750.906 -17498240.383 10 0 60934 40500.00000 0 -10802070.365 12420088.249 -19430761.700 10 0 60934 41400.00000 0 -10464285.903 9937138.563 -20984018.866 10 0 60934 42300.00000 0 -10305527.580 7270136.285 -22127788.882 10 0 60934 43200.00000 0 -10348154.129 4484766.004 -22839888.245 10 0 60934 44100.00000 0 -10602579.411 1650642.143 -23106600.003 10 0 60934 45000.00000 0 -11066776.333 -1161368.428 -22922930.306 10 0 60934 45900.00000 0 -11726326.567 -3881868.256 -22292690.434 10 0 60934 46800.00000 0 -12555012.737 -6445581.653 -21228403.953 10 0 60934 47700.00000 0 -13515926.552 -8793827.091 -19751042.235 10 0 60934 48600.00000 0 -14563044.500 -10876707.398 -17889595.045 10 0 60934 49500.00000 0 -15643203.114 -12654927.984 -15680485.982 10 0 60934 50400.00000 0 -16698389.152 -14101169.384 -13166845.596 10 0 60934 51300.00000 0 -17668247.240 -15200959.533 -10397657.524 10 0 60934 52200.00000 0 -18492698.749 -15953012.372 -7426795.257 10 0 60934 53100.00000 0 -19114561.545 -16369021.772 -4311969.046 10 0 60934 54000.00000 0 -19482060.698 -16472922.535 -1113603.883 10 0 60934 54900.00000 0 -19551125.292 -16299652.196 2106329.532 10 0 60934 55800.00000 0 -19287375.798 -15893467.854 5285508.279 10 0 60934 56700.00000 0 -18667719.723 -15305890.314 8362452.568 10 0 60934 57600.00000 0 -17681489.696 -14593362.770 11277700.666 10 0 60934 58500.00000 0 -16331077.245 -13814722.520 13974941.792 10 0 60934 59400.00000 0 -14632036.253 -13028591.401 16402086.513 10 0 60934 60300.00000 0 -12612651.816 -12290793.449 18512255.562 10 0 60934 61200.00000 0 -10312991.883 -11651906.800 20264669.624 10 0 60934 62100.00000 0 -7783479.966 -11155051.021 21625424.502 10 0 60934 63000.00000 0 -5083046.439 -10834001.285 22568138.117 10 0 60934 63900.00000 0 -2276932.922 -10711707.457 23074457.875 10 0 60934 64800.00000 0 565761.784 -10799279.655 23134419.182 10 0 60934 65700.00000 0 3374695.231 -11095483.027 22746648.222 10 0 60934 66600.00000 0 6080948.548 -11586763.852 21918404.479 10 0 60934 67500.00000 0 8619639.106 -12247807.394 20665461.029 10 0 60934 68400.00000 0 10932371.956 -13042606.236 19011823.218 10 0 60934 69300.00000 0 12969429.300 -13925996.567 16989289.140 10 0 60934 70200.00000 0 14691607.305 -14845600.210 14636858.167 10 0 60934 71100.00000 0 16071623.413 -15744092.811 11999996.717 10 0 60934 72000.00000 0 17095034.496 -16561704.151 9129773.517 10 0 60934 72900.00000 0 17760626.209 -17238845.933 6081879.532 10 0 60934 73800.00000 0 18080255.826 -17718756.062 2915550.536 10 0 60934 74700.00000 0 18078153.892 -17950046.656 -307587.038 10 0 60934 75600.00000 0 17789713.198 -17889046.337 -3524724.188 10 0 60934 76500.00000 0 17259815.751 -17501835.278 -6673106.895 10 0 60934 77400.00000 0 16540768.651 -16765884.203 -9691277.419 10 0 60934 78300.00000 0 15689937.033 -15671225.148 -12520293.265 10 0 60934 79200.00000 0 14767175.667 -14221101.854 -15104897.959 10 0 60934 80100.00000 0 13832169.774 -12432070.119 -17394618.689 10 0 60934 81000.00000 0 12941799.644 -10333542.245 -19344767.553 10 0 60934 81900.00000 0 12147642.565 -7966793.824 -20917325.431 10 0 60934 82800.00000 0 11493719.391 -5383474.351 -22081690.184 10 0 60934 83700.00000 0 11014582.243 -2643684.489 -22815274.162 10 0 60934 84600.00000 0 10733824.656 186298.772 -23103939.430 10 0 60934 85500.00000 0 10663077.027 3036552.953 -22942262.784 10 0 60935 0.00000 0 10801528.902 5836190.070 -22333626.385 10 0 60935 900.00000 0 11135997.069 8516074.789 -21290133.140 10 0 60935 1800.00000 0 11641534.555 11011463.447 -19832350.776 10 0 60935 2700.00000 0 12282553.113 13264459.304 -17988890.042 10 0 60935 3600.00000 0 13014409.715 15226178.938 -15795827.432 10 0 60935 4500.00000 0 13785388.301 16858542.593 -13295984.859 10 0 60935 5400.00000 0 14538991.697 18135615.783 -10538081.542 10 0 60935 6300.00000 0 15216445.952 19044448.813 -7575775.636 10 0 60935 7200.00000 0 15759310.916 19585382.056 -4466615.043 10 0 60935 8100.00000 0 16112086.943 19771807.243 -1270918.267 10 0 60935 9000.00000 0 16224708.304 19629397.575 1949392.779 10 0 60935 9900.00000 0 16054819.089 19194841.385 5131985.533 10 0 60935 10800.00000 0 15569736.857 18514134.339 8215312.462 10 0 60935 11700.00000 0 14748022.588 17640503.022 11139787.415 10 0 60935 12600.00000 0 13580591.979 16632047.508 13848920.974 10 0 60935 13500.00000 0 12071322.154 15549201.553 16290394.303 10 0 60935 14400.00000 0 10237128.562 14452116.047 18417052.339 10 0 60935 15300.00000 0 8107508.445 13398074.089 20187798.776 10 0 60935 16200.00000 0 5723568.843 12439044.366 21568377.182 10 0 60935 17100.00000 0 3136577.904 11619473.655 22532024.571 10 0 60935 18000.00000 0 406097.497 10974409.440 23059985.856 10 0 60935 18900.00000 0 -2402228.010 10528030.181 23141879.871 10 0 60935 19800.00000 0 -5219137.927 10292644.297 22775909.919 10 0 60935 20700.00000 0 -7974376.917 10268200.000 21968914.238 10 0 60935 21600.00000 0 -10599366.040 10442327.377 20736254.265 10 0 60935 22500.00000 0 -13029814.426 10790912.441 19101541.200 10 0 60935 23400.00000 0 -15208164.552 11279180.955 17096204.123 10 0 60935 24300.00000 0 -17085770.124 11863248.546 14758905.802 10 0 60935 25200.00000 0 -18624715.826 12492073.896 12134815.208 10 0 60935 26100.00000 0 -19799202.229 13109734.344 9274748.866 10 0 60935 27000.00000 0 -20596436.703 13657928.922 6234196.030 10 0 60935 27900.00000 0 -21016991.506 14078603.369 3072245.565 10 0 60935 28800.00000 0 -21074612.434 14316585.509 -149564.984 10 0 60935 29700.00000 0 -20795484.743 14322118.060 -3368455.441 10 0 60935 30600.00000 0 -20216986.444 14053179.528 -6521639.739 10 0 60935 31500.00000 0 -19385981.264 13477492.227 -9547567.682 10 0 60935 32400.00000 0 -18356723.769 12574129.618 -12387145.659 10 0 60935 33300.00000 0 -17188466.215 11334652.062 -14984910.392 10 0 60935 34200.00000 0 -15942869.815 9763720.490 -17290130.730 10 0 60935 35100.00000 0 -14681331.703 7879160.009 -19257814.153 10 0 60935 36000.00000 0 -13462342.451 5711469.351 -20849596.828 10 0 60935 36900.00000 0 -12338987.512 3302796.073 -22034498.850 10 0 60935 37800.00000 0 -11356699.372 705420.435 -22789529.424 10 0 60935 38700.00000 0 -10551355.987 -2020188.074 -23100130.257 10 0 60935 39600.00000 0 -9947805.723 -4807659.435 -22960449.009 10 0 60935 40500.00000 0 -9558880.298 -7587260.468 -22373438.423 10 0 60935 41400.00000 0 -9384935.954 -10288574.167 -21350780.436 10 0 60935 42300.00000 0 -9413940.305 -12843208.648 -19912638.165 10 0 60935 43200.00000 0 -9622098.936 -15187422.761 -18087242.120 10 0 60935 44100.00000 0 -9974992.954 -17264559.378 -15910320.184 10 0 60935 45000.00000 0 -10429177.181 -19027186.024 -13424383.890 10 0 60935 45900.00000 0 -10934169.488 -20438855.255 -10677886.130 10 0 60935 46800.00000 0 -11434745.734 -21475413.550 -7724267.690 10 0 60935 47700.00000 0 -11873442.294 -22125806.589 -4620912.016 10 0 60935 48600.00000 0 -12193160.056 -22392350.039 -1428028.965 10 0 60935 49500.00000 0 -12339760.012 -22290457.239 1792510.568 10 0 60935 50400.00000 0 -12264541.480 -21847837.685 4978366.659 10 0 60935 51300.00000 0 -11926499.349 -21103201.944 8067926.397 10 0 60935 52200.00000 0 -11294266.339 -20104528.710 11001481.640 10 0 60935 53100.00000 0 -10347659.604 -18906967.390 13722366.799 10 0 60935 54000.00000 0 -9078767.540 -17570464.125 16178036.085 10 0 60935 54900.00000 0 -7492531.601 -16157210.015 18321061.013 10 0 60935 55800.00000 0 -5606798.653 -14729017.156 20110030.513 10 0 60935 56700.00000 0 -3451840.836 -13344730.644 21510337.926 10 0 60935 57600.00000 0 -1069361.477 -12057782.953 22494841.099 10 0 60935 58500.00000 0 1488973.639 -10913991.157 23044383.899 10 0 60935 59400.00000 0 4163421.195 -9949687.580 23148169.711 10 0 60935 60300.00000 0 6888386.091 -9190260.928 22803979.769 10 0 60935 61200.00000 0 9594898.593 -8649168.501 22018231.569 10 0 60935 62100.00000 0 12213242.924 -8327461.012 20805875.113 10 0 60935 63000.00000 0 14675630.563 -8213840.747 19190127.359 10 0 60935 63900.00000 0 16918808.991 -8285252.023 17202047.969 10 0 60935 64800.00000 0 18886498.411 -8507980.813 14879962.354 10 0 60935 65700.00000 0 20531555.188 -8839219.092 12268740.917 10 0 60935 66600.00000 0 21817771.178 -9229029.617 9418946.430 10 0 60935 67500.00000 0 22721232.569 -9622629.412 6385864.458 10 0 60935 68400.00000 0 23231179.689 -9962896.049 3228434.534 10 0 60935 69300.00000 0 23350329.928 -10192990.433 8102.503 10 0 60935 70200.00000 0 23094648.485 -10258984.040 -3212383.409 10 0 60935 71100.00000 0 22492575.263 -10112377.477 -6370208.419 10 0 60935 72000.00000 0 21583739.662 -9712401.258 -9403733.303 10 0 60935 72900.00000 0 20417217.361 -9027998.554 -12253716.731 10 0 60935 73800.00000 0 19049403.171 -8039403.049 -14864491.912 10 0 60935 74700.00000 0 17541590.902 -6739242.416 -17185072.466 10 0 60935 75600.00000 0 15957363.969 -5133118.426 -19170164.112 10 0 60935 76500.00000 0 14359908.618 -3239637.394 -20781060.892 10 0 60935 77400.00000 0 12809364.831 -1089888.514 -21986407.382 10 0 60935 78300.00000 0 11360328.017 1273608.465 -22762811.518 10 0 60935 79200.00000 0 10059607.633 3798441.997 -23095296.103 10 0 60935 80100.00000 0 8944337.386 6424268.858 -22977580.674 10 0 60935 81000.00000 0 8040516.020 9085112.830 -22412189.168 10 0 60935 81900.00000 0 7362038.873 11711904.993 -21410382.508 10 0 60935 82800.00000 0 6910259.045 14235158.778 -19991918.819 10 0 60935 83700.00000 0 6674094.275 16587667.798 -18184647.500 10 0 60935 84600.00000 0 6630672.325 18707113.908 -16023946.495 10 0 60935 85500.00000 0 6746484.971 20538477.308 -13552015.204 10 0 60936 0.00000 0 6978999.326 22036149.158 -10817038.264 10 0 60936 900.00000 0 7278656.468 23165660.978 -7872236.053 10 0 60936 1800.00000 0 7591170.973 23904958.774 -4774824.898 10 0 60936 2700.00000 0 7860033.618 24245173.750 -1584902.851 10 0 60936 3600.00000 0 8029110.809 24190857.804 1635713.547 10 0 60936 4500.00000 0 8045231.248 23759677.232 4824680.435 10 0 60936 5400.00000 0 7860651.254 22981579.396 7920322.917 10 0 60936 6300.00000 0 7435295.766 21897468.852 10862814.141 10 0 60936 7200.00000 0 6738681.628 20557449.316 13595315.435 10 0 60936 8100.00000 0 5751443.260 19018705.308 16065056.907 10 0 60936 9000.00000 0 4466397.268 17343111.650 18224339.203 10 0 60936 9900.00000 0 2889101.521 15594669.673 20031438.742 10 0 60936 10800.00000 0 1037884.843 13836875.686 21451400.556 10 0 60936 11700.00000 0 -1056655.075 12130129.678 22456704.891 10 0 60936 12600.00000 0 -3352666.437 10529290.441 23027795.745 10 0 60936 13500.00000 0 -5798530.916 9081477.270 23153461.818 10 0 60936 14400.00000 0 -8334765.027 7824208.442 22831062.584 10 0 60936 15300.00000 0 -10896259.285 6783953.203 22066594.624 10 0 60936 16200.00000 0 -13414765.104 5975157.332 20874595.832 10 0 60936 17100.00000 0 -15821528.795 5399783.272 19277887.734 10 0 60936 18000.00000 0 -18049965.245 5047384.932 17307158.904 10 0 60936 18900.00000 0 -20038261.413 4895715.255 15000395.294 10 0 60936 19800.00000 0 -21731801.750 4911842.544 12402166.264 10 0 60936 20700.00000 0 -23085313.995 5053730.055 9562778.088 10 0 60936 21600.00000 0 -24064644.629 5272213.483 6537309.714 10 0 60936 22500.00000 0 -24648088.019 5513293.558 3384548.334 10 0 60936 23400.00000 0 -24827211.508 5720646.876 165845.050 10 0 60936 24300.00000 0 -24607139.774 5838247.946 -3056086.869 10 0 60936 25200.00000 0 -24006284.664 5812989.909 -6218406.881 10 0 60936 26100.00000 0 -23055530.545 5597190.725 -9259389.606 10 0 60936 27000.00000 0 -21796908.736 5150876.016 -12119648.770 10 0 60936 27900.00000 0 -20281816.916 4443738.981 -14743316.681 10 0 60936 28800.00000 0 -18568859.207 3456691.608 -17079154.134 10 0 60936 29700.00000 0 -16721399.202 2182939.027 -19081567.193 10 0 60936 30600.00000 0 -14804930.605 628529.506 -20711509.501 10 0 60936 31500.00000 0 -12884377.879 -1187644.565 -21937251.421 10 0 60936 32400.00000 0 -11021442.016 -3234395.597 -22735000.447 10 0 60936 33300.00000 0 -9272104.124 -5469316.783 -23089360.826 10 0 60936 34200.00000 0 -7684392.312 -7840339.652 -22993623.850 10 0 60936 35100.00000 0 -6296505.429 -10287707.210 -22449884.087 10 0 60936 36000.00000 0 -5135371.471 -12746279.233 -21468980.484 10 0 60936 36900.00000 0 -4215699.489 -15148072.362 -20070264.879 10 0 60936 37800.00000 0 -3539562.465 -17424928.226 -18281203.965 10 0 60936 38700.00000 0 -3096525.909 -19511197.765 -16136823.935 10 0 60936 39600.00000 0 -2864313.758 -21346329.805 -13679010.078 10 0 60936 40500.00000 0 -2809980.554 -22877256.386 -10955676.208 10 0 60936 41400.00000 0 -2891537.794 -24060476.439 -8019821.167 10 0 60936 42300.00000 0 -3059963.561 -24863752.318 -4928491.595 10 0 60936 43200.00000 0 -3261508.973 -25267350.317 -1741671.652 10 0 60936 44100.00000 0 -3440203.032 -25264775.483 1478878.530 10 0 60936 45000.00000 0 -3540449.772 -24862972.175 4670813.193 10 0 60936 45900.00000 0 -3509608.322 -24081984.041 7772397.502 10 0 60936 46800.00000 0 -3300447.739 -22954089.233 10723687.953 10 0 60936 47700.00000 0 -2873374.112 -21522448.186 13467674.858 10 0 60936 48600.00000 0 -2198337.228 -19839320.913 15951366.260 10 0 60936 49500.00000 0 -1256337.526 -17963928.083 18126793.926 10 0 60936 50400.00000 0 -40470.561 -15960044.270 19951923.627 10 0 60936 51300.00000 0 1443534.796 -13893422.347 21391453.793 10 0 60936 52200.00000 0 3177307.687 -11829154.452 22417488.554 10 0 60936 53100.00000 0 5130357.898 -9829077.437 23010073.287 10 0 60936 54000.00000 0 7261110.046 -7949328.750 23157582.994 10 0 60936 54900.00000 0 9518408.905 -6238152.657 22856956.117 10 0 60936 55800.00000 0 11843436.119 -4734046.772 22113768.789 10 0 60936 56700.00000 0 14171961.597 -3464325.246 20942147.015 10 0 60936 57600.00000 0 16436838.804 -2444158.296 19364516.872 10 0 60936 58500.00000 0 18570642.459 -1676128.543 17411195.563 10 0 60936 59400.00000 0 20508340.521 -1150323.579 15119829.027 10 0 60936 60300.00000 0 22189889.968 -844962.042 12534684.714 10 0 60936 61200.00000 0 23562647.982 -727528.261 9705811.190 10 0 60936 62100.00000 0 24583496.897 -756368.843 6688079.186 10 0 60936 63000.00000 0 25220592.378 -882684.756 3540121.555 10 0 60936 63900.00000 0 25454659.428 -1052834.990 323192.285 10 0 60936 64800.00000 0 25279779.553 -1210853.977 -2900033.025 10 0 60936 65700.00000 0 24703633.734 -1301075.000 -6066691.026 10 0 60936 66600.00000 0 23747189.135 -1270746.625 -9114973.294 10 0 60936 67500.00000 0 22443841.392 -1072528.896 -11985351.755 10 0 60936 68400.00000 0 20838047.983 -666760.816 -14621760.916 10 0 60936 69300.00000 0 18983510.313 -23400.259 -16972711.710 10 0 60936 70200.00000 0 16940981.808 876448.402 -18992313.350 10 0 60936 71100.00000 0 14775795.455 2039485.821 -20641181.685 10 0 60936 72000.00000 0 12555216.309 3459694.351 -21887215.227 10 0 60936 72900.00000 0 10345731.686 5118363.014 -22706223.142 10 0 60936 73800.00000 0 8210394.069 6984660.212 -23082392.916 10 0 60936 74700.00000 0 6206329.035 9016729.931 -23008589.042 10 0 60936 75600.00000 0 4382512.761 11163264.856 -22486477.753 10 0 60936 76500.00000 0 2777911.657 13365489.560 -21526476.596 10 0 60936 77400.00000 0 1420060.685 15559469.664 -20147531.209 10 0 60936 78300.00000 0 324137.820 17678649.403 -18376725.172 10 0 60936 79200.00000 0 -507429.225 19656510.773 -16248732.009 10 0 60936 80100.00000 0 -1084810.590 21429242.721 -13805121.490 10 0 60936 81000.00000 0 -1430085.805 22938308.942 -11093534.984 10 0 60936 81900.00000 0 -1576051.355 24132807.574 -8166747.004 10 0 60936 82800.00000 0 -1564577.286 24971525.223 -5081632.050 10 0 60936 83700.00000 0 -1444584.356 25424600.974 -1898057.403 10 0 60936 84600.00000 0 -1269728.697 25474732.603 1322276.437 10 0 60936 85500.00000 0 -1095892.555 25117876.432 4517025.186 10 0 60937 0.00000 0 -978587.232 24363413.551 7624397.221 10 0 60937 900.00000 0 -970377.343 23233776.531 10584336.331 10 0 60937 1800.00000 0 -1118434.322 21763554.517 13339664.803 10 0 60937 2700.00000 0 -1462320.935 19998113.316 15837171.721 10 0 60937 3600.00000 0 -2032099.122 17991788.910 18028622.848 10 0 60937 4500.00000 0 -2846839.776 15805728.691 19871675.932 10 0 60937 5400.00000 0 -3913596.570 13505469.044 21330685.117 10 0 60937 6300.00000 0 -5226887.038 11158348.276 22377380.407 10 0 60937 7200.00000 0 -6768703.512 8830860.391 22991410.162 10 0 60937 8100.00000 0 -8509055.043 6586057.491 23160736.865 10 0 60937 9000.00000 0 -10407019.982 4481106.625 22881878.625 10 0 60937 9900.00000 0 -12412267.962 2565100.921 22159991.313 10 0 60937 10800.00000 0 -14466990.867 877214.711 21008788.675 10 0 60937 11700.00000 0 -16508165.216 -554721.229 19450300.395 10 0 60937 12600.00000 0 -18470054.271 -1715165.021 17514470.816 10 0 60937 13500.00000 0 -20286847.578 -2601289.642 15238603.849 10 0 60937 14400.00000 0 -21895329.023 -3222870.798 12666662.570 10 0 60937 15300.00000 0 -23237462.286 -3601640.236 9848435.002 10 0 60937 16200.00000 0 -24262784.971 -3770130.525 6838580.559 10 0 60937 17100.00000 0 -24930509.746 -3770059.021 3695574.482 10 0 60937 18000.00000 0 -25211242.294 -3650318.677 480570.291 10 0 60937 18900.00000 0 -25088241.535 -3464660.732 -2743797.450 10 0 60937 19800.00000 0 -24558166.557 -3269168.106 -5914645.911 10 0 60937 20700.00000 0 -23631276.523 -3119627.996 -8970086.861 10 0 60937 21600.00000 0 -22331073.219 -3068917.062 -11850453.536 10 0 60937 22500.00000 0 -20693400.025 -3164512.504 -14499485.573 10 0 60937 23400.00000 0 -18765034.717 -3446237.145 -16865446.730 10 0 60937 24300.00000 0 -16601835.474 -3944336.628 -18902151.710 10 0 60937 25200.00000 0 -14266518.818 -4677972.412 -20569880.477 10 0 60937 26100.00000 0 -11826164.075 -5654196.123 -21836161.097 10 0 60937 27000.00000 0 -9349550.473 -6867449.816 -22676405.231 10 0 60937 27900.00000 0 -6904439.821 -8299613.878 -23074383.853 10 0 60937 28800.00000 0 -4554919.649 -9920600.519 -23022534.321 10 0 60937 29700.00000 0 -2358918.415 -11689467.426 -22522093.687 10 0 60937 30600.00000 0 -365996.545 -13556003.888 -21583056.797 10 0 60937 31500.00000 0 1384495.297 -15462721.719 -20223961.419 10 0 60937 32400.00000 0 2864815.419 -17347166.355 -18471506.050 10 0 60937 33300.00000 0 4059731.662 -19144450.303 -16360009.364 10 0 60937 34200.00000 0 4966888.534 -20789902.071 -13930723.279 10 0 60937 35100.00000 0 5596628.789 -22221719.383 -11231014.292 10 0 60937 36000.00000 0 5971280.273 -23383515.746 -8313430.126 10 0 60937 36900.00000 0 6123941.152 -24226654.365 -5234670.696 10 0 60937 37800.00000 0 6096817.396 -24712272.800 -2054483.992 10 0 60937 38700.00000 0 5939184.674 -24812915.018 1165491.456 10 0 60937 39600.00000 0 5705062.042 -24513704.128 4362915.083 10 0 60937 40500.00000 0 5450696.199 -23813008.391 7475941.176 10 0 60937 41400.00000 0 5231962.424 -22722574.117 10444401.740 10 0 60937 42300.00000 0 5101791.161 -21267121.051 13210953.530 10 0 60937 43200.00000 0 5107727.685 -19483417.785 15722168.458 10 0 60937 44100.00000 0 5289726.365 -17418875.814 17929547.910 10 0 60937 45000.00000 0 5678271.163 -15129720.228 19790443.041 10 0 60937 45900.00000 0 6292900.408 -12678811.963 21268864.916 10 0 60937 46800.00000 0 7141197.406 -10133210.378 22336170.372 10 0 60937 47700.00000 0 8218289.435 -7561575.292 22971611.454 10 0 60937 48600.00000 0 9506877.098 -5031514.007 23162738.567 10 0 60937 49500.00000 0 10977794.535 -2606981.064 22905649.687 10 0 60937 50400.00000 0 12591079.365 -345836.643 22205080.387 10 0 60937 51300.00000 0 14297510.406 1702336.695 21074331.918 10 0 60937 52200.00000 0 16040551.832 3498069.270 19535037.156 10 0 60937 53100.00000 0 17758625.286 5013415.613 17616766.981 10 0 60937 54000.00000 0 19387617.330 6232882.911 15356482.495 10 0 60937 54900.00000 0 20863519.042 7153837.139 12797841.416 10 0 60937 55800.00000 0 22125088.049 7786368.842 9990370.014 10 0 60937 56700.00000 0 23116421.334 8152623.087 6988514.917 10 0 60937 57600.00000 0 23789329.850 8285620.704 3850592.014 10 0 60937 58500.00000 0 24105413.382 8227619.731 637652.347 10 0 60937 59400.00000 0 24037746.038 8028086.071 -2587712.806 10 0 60937 60300.00000 0 23572098.781 7741359.520 -5762603.578 10 0 60937 61200.00000 0 22707644.847 7424115.069 -8825054.485 10 0 60937 62100.00000 0 21457115.973 7132728.712 -11715262.677 10 0 60937 63000.00000 0 19846400.979 6920661.548 -14376775.483 10 0 60937 63900.00000 0 17913602.432 6835975.491 -16757611.974 10 0 60937 64800.00000 0 15707590.623 6919088.328 -18811294.715 10 0 60937 65700.00000 0 13286115.864 7200865.460 -20497770.041 10 0 60937 66600.00000 0 10713559.184 7701130.967 -21784197.683 10 0 60937 67500.00000 0 8058416.890 8427662.279 -22645593.768 10 0 60937 68400.00000 0 5390625.637 9375711.615 -23065314.535 10 0 60937 69300.00000 0 2778841.058 10528074.458 -23035371.742 10 0 60937 70200.00000 0 287784.477 11855701.713 -22556574.466 10 0 60937 71100.00000 0 -2024231.306 13318828.839 -21638495.682 10 0 60937 72000.00000 0 -4107494.336 14868573.263 -20299265.654 10 0 60937 72900.00000 0 -5922713.664 16448931.604 -18565197.686 10 0 60937 73800.00000 0 -7442393.349 17999091.595 -16470254.990 10 0 60937 74700.00000 0 -8651705.470 19455960.558 -14055370.540 10 0 60937 75600.00000 0 -9548828.711 20756803.692 -11367634.429 10 0 60937 76500.00000 0 -10144741.691 21841881.173 -8459365.654 10 0 60937 77400.00000 0 -10462482.976 22656973.716 -5387087.264 10 0 60937 78300.00000 0 -10535911.946 23155691.285 -2210425.392 10 0 60937 79200.00000 0 -10408025.191 23301469.265 1009046.205 10 0 60937 80100.00000 0 -10128901.258 23069169.693 4208993.663 10 0 60937 81000.00000 0 -9753361.504 22446221.919 7327520.000 10 0 60937 81900.00000 0 -9338446.049 21433256.280 10304349.169 10 0 60937 82800.00000 0 -8940810.924 20044205.395 13081975.274 10 0 60937 83700.00000 0 -8614155.201 18305869.513 15606756.180 10 0 60937 84600.00000 0 -8406785.192 16256964.176 17829931.917 10 0 60937 85500.00000 0 -8359416.824 13946689.379 19708549.899 99